Terug naar catalogus

BREEZE-M DEB

LostHEO
NORAD 38639·DEBRIS·🇷🇺 Russia

Gelanceerd Mar 14, 2008 vanaf Baikonur Cosmodrome

Loading…

Volgende Passages (komende 24 uur)

TLE

VerouderdSource: Space-Track

Epoch: May 28, 2013, 09:05 UTC

1 38639U 08011CN  13148.37901888  .00012897  00000-0  70873-1 0  9993
2 38639 049.2412 231.5165 6569167 213.6656 078.1615 03.03367833 21912

Volg BREEZE-M DEB in realtime met AllMySat

Download on the App Store